Vero Beach, FL

5:59 PM EDT on March 27, 2017 (GMT -0400)
Vero Beach Municipal

Weather History for KVRB - January, 2012

Change the Weather History Date:

Friday, January 13, 2012

  Actual Average Record
Temperature  
Mean Temperature 62 °F 62 °F  
Max Temperature 72 °F 72 °F 84 °F (1993)
Min Temperature 51 °F 51 °F 26 °F (1982)
Degree Days  
Heating Degree Days 3 5  
Month to date heating degree days 79 65  
Since 1 July heating degree days 119 200  
Cooling Degree Days 0 2  
Month to date cooling degree days 7 26  
Year to date cooling degree days 7 26  
Growing Degree Days 11 (Base 50)    
Moisture  
Dew Point 48 °F    
Average Humidity 63    
Maximum Humidity 90    
Minimum Humidity 36    
Precipitation  
Precipitation 0.00 in 0.08 in 1.29 in (1948)
Month to date precipitation 0.00 1.04  
Year to date precipitation 0.00 1.04  
Sea Level Pressure  
Sea Level Pressure 30.11 in    
Wind  
Wind Speed 7 mph (WNW)    
Max Wind Speed 15 mph    
Max Gust Speed 18 mph    
Visibility 10 miles    
Events      
T = Trace of Precipitation, MM = Missing Value Source: NWS Daily Summary

Daily Weather History Graph

Daily Weather History Graph

Search for Another Location

Airport or City:

Trip Planner

Search our weather history database for the weather conditions in past years. The results will help you decide how hot, cold, wet, or windy it might be!

Date:

Astronomy

Jan. 13, 2012 Rise Set
Actual Time 7:13 AM EST 5:46 PM EST
Civil Twilight 6:48 AM EST 6:12 PM EST
Nautical Twilight 6:19 AM EST 6:40 PM EST
Astronomical Twilight 5:51 AM EST 7:09 PM EST
Moon 10:26 PM EST (1/13) 9:55 AM EST (1/13)
Length of Visible Light 11h 23m
Length of Day
10h 33m
Waning Gibbous, 79% of the Moon is Illuminated
Jan 13
Waning Gibbous
Jan 16
Last Quarter
Jan 23
New
Jan 30
First Quarter
Feb 7
Full

Hourly Weather History & Observations

Time (EST) Temp. Dew Point Humidity Pressure Visibility Wind Dir Wind Speed Gust Speed Precip Events Conditions
12:53 AM 60.1 °F 55.9 °F 86% 29.99 in 10.0 mi SW 5.8 mph - N/A   Clear
1:53 AM 61.0 °F 55.9 °F 83% 30.00 in 10.0 mi SSW 5.8 mph - N/A   Clear
2:53 AM 60.1 °F 55.9 °F 86% 30.01 in 10.0 mi SSW 6.9 mph - N/A   Clear
3:53 AM 61.0 °F 57.0 °F 87% 30.00 in 10.0 mi SSW 8.1 mph - N/A   Clear
4:53 AM 60.1 °F 57.0 °F 90% 30.03 in 10.0 mi SW 6.9 mph - N/A   Clear
5:26 AM 60.8 °F 57.2 °F 88% 30.04 in 10.0 mi WSW 8.1 mph - N/A   Mostly Cloudy
5:51 AM 60.8 °F 57.2 °F 88% 30.06 in 10.0 mi WSW 9.2 mph - N/A   Scattered Clouds
5:53 AM 60.1 °F 57.9 °F 93% 30.06 in 10.0 mi WSW 9.2 mph - N/A   Scattered Clouds
6:53 AM 60.1 °F 57.0 °F 90% 30.09 in 10.0 mi WNW 5.8 mph - N/A   Mostly Cloudy
7:53 AM 60.1 °F 55.9 °F 86% 30.11 in 10.0 mi WNW 5.8 mph - N/A   Mostly Cloudy
8:53 AM 61.0 °F 54.0 °F 78% 30.14 in 10.0 mi NW 10.4 mph - N/A   Clear
9:53 AM 64.0 °F 42.1 °F 45% 30.16 in 10.0 mi NW 12.7 mph - N/A   Clear
10:53 AM 66.9 °F 43.0 °F 42% 30.16 in 10.0 mi NW 8.1 mph - N/A   Clear
11:53 AM 70.0 °F 42.1 °F 36% 30.13 in 10.0 mi NNW 9.2 mph - N/A   Clear
12:53 PM 69.1 °F 41.0 °F 36% 30.12 in 10.0 mi WNW 6.9 mph - N/A   Clear
1:53 PM 70.0 °F 42.1 °F 36% 30.11 in 10.0 mi Calm Calm - N/A   Clear
2:53 PM 69.1 °F 45.0 °F 42% 30.11 in 10.0 mi North 8.1 mph - N/A   Clear
3:53 PM 66.9 °F 43.0 °F 42% 30.12 in 10.0 mi NNE 9.2 mph - N/A   Clear
4:53 PM 63.0 °F 44.1 °F 50% 30.13 in 10.0 mi North 4.6 mph - N/A   Clear
5:53 PM 60.1 °F 44.1 °F 55% 30.14 in 10.0 mi North 3.5 mph - N/A   Clear
6:53 PM 55.0 °F 46.9 °F 74% 30.16 in 10.0 mi NNW 3.5 mph - N/A   Clear
7:53 PM 52.0 °F 46.0 °F 80% 30.17 in 10.0 mi NW 4.6 mph - N/A   Clear
8:53 PM 55.0 °F 43.0 °F 64% 30.19 in 10.0 mi NW 8.1 mph - N/A   Clear
9:53 PM 54.0 °F 37.0 °F 53% 30.20 in 10.0 mi WNW 9.2 mph - N/A   Clear
10:53 PM 53.1 °F 34.0 °F 48% 30.20 in 10.0 mi NW 9.2 mph - N/A   Clear
11:53 PM 52.0 °F 35.1 °F 53% 30.22 in 10.0 mi NW 6.9 mph - N/A   Mostly Cloudy